Regional Weather Roundup
Issued by NWS

Home | Current Version | Previous Version | Graphics & Text | Print | Product List | Glossary On
Versions: 1 2 3 4 5 6 7 8 9 10 11 12 13 14 15 16 17 18 19 20 21 22 23 24 25 26 27 28 29 30 31 32 33 34 35 36 37 38 39 40 41 42 43 44 45 46 47 48 49 50
000
ASUS43 KBIS 252302
RWRND

NORTH DAKOTA REGIONAL WEATHER ROUNDUP
NATIONAL WEATHER SERVICE BISMARCK ND
600 PM CDT THU AUG 25 2016

NOTE: "FAIR" INDICATES FEW OR NO CLOUDS BELOW 12,000 FEET WITH NO
SIGNIFICANT WEATHER AND/OR OBSTRUCTIONS TO VISIBILITY.


NDZ001>003-009>011-017-260000-
NORTHWEST NORTH DAKOTA

CITY           SKY/WX    TMP DP  RH WIND       PRES   REMARKS
WILLISTON      PTSUNNY   76  34  21 VRB5      30.09F
MINOT          SUNNY     74  39  28 W8        30.07S
MINOT AFB      SUNNY     74  37  25 NW15      30.05F
$$

NDZ018>021-031>035-040>046-260000-
SOUTHWEST NORTH DAKOTA

CITY           SKY/WX    TMP DP  RH WIND       PRES   REMARKS
BISMARCK       CLOUDY    67  47  48 W9        30.14F
DICKINSON      PTSUNNY   69  35  28 W10       30.13F
GARRISON         N/A     72  41  32 W8        30.09F
HETTINGER ARPT CLOUDY    66  41  40 W6        30.19F
$$

NDZ004>008-012>016-024-026-027-054-260000-
NORTHEAST NORTH DAKOTA

CITY           SKY/WX    TMP DP  RH WIND       PRES   REMARKS
GRAND FORKS    MOSUNNY   70  49  47 NW10      30.04S
GRND FRKS AFB  MOSUNNY   69  51  52 W7        30.05F
DEVILS LAKE    SUNNY     70  43  37 N12       30.07S
$$

NDZ022-023-025-028>030-036>039-047>053-260000-
SOUTHEAST NORTH DAKOTA

CITY           SKY/WX    TMP DP  RH WIND       PRES   REMARKS
FARGO          CLOUDY    69  50  50 NW12      30.07S
JAMESTOWN      CLOUDY    65  51  60 W8        30.10S
$$





USA.gov is the U.S. government's official web portal to all federal, state and local government web resources and services.